GW7103 Weather Reports


time (UTC)temp
C
wind
direction
speed
KPH
gust
KPH
rain 1hr
cm
rain 24hr
cm
rain mn
cm
humidity
%
barometer
mb
20260507114504 6 340 0.0 0.0 0.00 3.35 0.38 91 1006.0
20260507113011 6 340 0.0 3.2 0.00 3.35 0.38 90 1006.2
20260507111510 6 339 1.6 3.2 0.00 3.35 0.38 88 1006.3
20260507110014 5 339 0.0 3.2 0.00 3.35 0.38 91 1006.1
20260507104503 5 339 0.0 0.0 0.00 3.35 0.38 92 1005.9
20260507103004 6 339 3.2 6.4 0.00 3.35 0.38 87 1005.9
20260507101508 5 281 0.0 1.6 0.00 3.35 0.38 91 1005.7
20260507100012 5 281 0.0 4.8 0.00 3.35 0.38 90 1005.9
20260507094516 5 294 1.6 4.8 0.00 3.35 0.38 92 1005.9
20260507093004 5 300 1.6 3.2 0.00 3.35 0.38 93 1005.3
20260507091506 5 300 0.0 3.2 0.00 3.35 0.38 92 1004.8
20260507090013 5 300 3.2 4.8 0.00 3.35 0.38 90 1005.5
20260507084519 5 314 1.6 3.2 0.00 3.35 0.38 90 1005.3
20260507083022 6 50 0.0 3.2 0.00 3.35 0.38 91 1005.3
20260507081505 6 45 0.0 3.2 0.00 3.35 0.38 91 1005.1
20260507080011 6 106 0.0 3.2 0.00 3.35 0.38 90 1005.2
20260507074511 6 355 0.0 4.8 0.00 3.35 0.38 90 1005.0
20260507073020 6 266 0.0 8.0 0.03 3.35 0.38 90 1004.7
20260507071525 7 325 1.6 6.4 0.05 3.35 0.38 92 1004.5
20260507070014 6 345 0.0 3.2 0.13 3.35 0.38 93 1004.5
20260507064514 6 345 0.0 0.0 0.13 3.35 0.38 92 1004.3
20260507063016 7 345 0.0 3.2 0.10 3.33 0.36 92 1004.8
20260507061522 7 342 1.6 6.4 0.15 3.30 0.33 92 1004.4
20260507060007 7 319 1.6 3.2 0.10 3.23 0.25 90 1004.6
20260507054511 7 25 0.0 4.8 0.13 3.23 0.25 91 1004.1
20260507053014 7 325 0.0 3.2 0.15 3.23 0.25 93 1004.0
20260507051517 7 47 0.0 4.8 0.10 3.15 0.18 93 1004.4
20260507050028 7 333 0.0 12.9 0.15 3.12 0.15 92 1004.8
20260507044507 7 314 3.2 6.4 0.20 3.10 0.13 90 1004.9
20260507043012 8 354 1.6 4.8 0.36 3.07 0.10 92 1004.2
20260507041516 8 331 1.6 4.8 0.43 3.05 0.08 93 1004.5
20260507040019 8 69 0.0 3.2 0.38 2.95 0.00 93 1004.5
20260507034525 8 308 0.0 3.2 0.36 2.92 2.90 93 1004.5
20260507033010 8 322 0.0 4.8 0.30 2.74 2.72 93 1004.2
20260507031512 8 359 0.0 3.2 0.36 2.64 2.62 94 1003.8
20260507030019 9 343 0.0 3.2 0.48 2.62 2.59 94 1003.9
20260507024522 9 314 1.6 3.2 0.61 2.57 2.54 93 1003.9
20260507023026 10 314 0.0 3.2 0.53 2.44 2.41 94 1004.3
20260507021513 10 314 0.0 3.2 0.41 2.29 2.26 94 1004.8
20260507020022 8 314 0.0 4.8 0.25 2.13 2.11 93 1005.1
20260507014523 11 299 3.2 4.8 0.13 1.96 1.93 93 1005.1
20260507013033 11 223 1.6 6.4 0.08 1.91 1.88 93 1005.0
20260507011533 11 202 1.6 6.4 0.05 1.88 1.85 94 1005.2
20260507010019 11 60 0.0 4.8 0.05 1.88 1.85 93 1005.5
20260507004519 11 152 0.0 4.8 0.00 1.83 1.80 94 1005.5
20260507003022 11 207 1.6 4.8 0.03 1.88 1.80 94 1005.5
20260507001533 11 274 1.6 3.2 0.05 1.88 1.80 94 1005.6
20260507000012 11 248 0.0 3.2 0.08 1.88 1.80 94 1005.9
20260506234516 10 283 0.0 3.2 0.10 1.93 1.80 93 1005.9
20260506233021 9 267 4.8 11.3 0.08 1.96 1.78 93 1006.0
20260506231524 11 286 8.0 12.9 0.05 1.93 1.75 92 1006.0
20260506230008 11 269 1.6 11.3 0.03 1.91 1.73 92 1005.8
20260506224513 11 310 1.6 8.0 0.03 1.88 1.70 93 1005.9
20260506223020 11 279 3.2 11.3 0.05 1.88 1.70 93 1006.1
20260506221522 11 167 1.6 3.2 0.10 1.88 1.70 93 1006.1
20260506220008 11 11 1.6 8.0 0.23 1.88 1.70 93 1006.0
20260506214509 11 231 0.0 3.2 0.38 1.85 1.68 93 1006.1
20260506213016 11 72 0.0 4.8 0.46 1.83 1.65 93 1006.3
20260506211523 11 181 1.6 8.0 0.69 1.78 1.60 94 1006.7
20260506210032 11 293 1.6 9.7 0.97 1.65 1.47 94 1006.7
20260506204510 11 291 1.6 3.2 0.89 1.47 1.30 94 1006.8
20260506203015 9 291 6.4 8.0 0.86 1.37 1.19 91 1007.1
20260506201519 10 266 0.0 12.9 0.66 1.09 0.91 93 1006.6
20260506200021 12 295 6.4 8.0 0.33 0.69 0.51 87 1006.6
20260506194526 12 254 1.6 3.2 0.30 0.58 0.41 92 1006.4
20260506193010 12 27 0.0 3.2 0.28 0.51 0.33 92 1006.4
20260506191519 12 139 0.0 3.2 0.20 0.43 0.25 92 1006.8
20260506190020 13 89 0.0 3.2 0.13 0.36 0.18 92 1007.0
20260506184526 13 245 1.6 3.2 0.05 0.28 0.10 91 1007.4
20260506183012 13 245 0.0 3.2 0.00 0.23 0.05 90 1007.7
20260506181514 13 120 0.0 4.8 0.03 0.23 0.05 91 1007.5
20260506180026 12 204 0.0 4.8 0.03 0.23 0.05 91 1007.5
20260506174526 11 267 0.0 3.2 0.05 0.23 0.05 91 1007.6
20260506173031 12 267 0.0 1.6 0.05 0.23 0.05 92 1008.1
20260506171515 11 267 1.6 8.0 0.03 0.20 0.03 90 1008.5
20260506170018 11 266 0.0 1.6 0.03 0.20 0.03 89 1009.0
20260506164520 11 266 0.0 3.2 0.00 0.18 0.00 89 1009.0
20260506163031 11 267 0.0 3.2 0.00 0.18 0.00 86 1009.0
20260506161528 11 267 0.0 3.2 0.00 0.18 0.00 83 1009.4
20260506160016 12 241 0.0 3.2 0.00 0.18 0.00 87 1009.4
20260506154521 13 241 0.0 3.2 0.00 0.18 0.00 81 1009.6
20260506153024 13 149 1.6 4.8 0.00 0.18 0.00 83 1009.4
20260506151529 13 124 0.0 4.8 0.00 0.18 0.00 84 1009.4
20260506150030 12 288 0.0 3.2 0.00 0.18 0.00 84 1009.2
20260506144519 12 85 0.0 3.2 0.00 0.18 0.00 87 1009.4
20260506143027 11 300 0.0 3.2 0.00 0.18 0.00 90 1009.8
20260506141529 11 300 0.0 1.6 0.00 0.18 0.00 89 1010.1
20260506140009 10 300 0.0 3.2 0.00 0.18 0.00 87 1010.3
20260506134515 10 300 0.0 3.2 0.00 0.18 0.00 90 1010.6
20260506133021 10 300 0.0 1.6 0.00 0.18 0.00 89 1010.8
20260506131507 10 300 0.0 3.2 0.00 0.18 0.00 87 1010.7
20260506130007 10 300 0.0 3.2 0.00 0.18 0.00 88 1010.7
20260506124512 11 300 0.0 3.2 0.00 0.18 0.00 91 1010.7
20260506123020 11 141 0.0 1.6 0.00 0.18 0.00 89 1010.8
20260506121509 11 141 0.0 3.2 0.00 0.18 0.00 89 1010.7
20260506120011 10 203 0.0 3.2 0.00 0.18 0.00 90 1011.0